Location: Perryvale
(54.4667°N, 113.3833°W)
Time: 23:29:28
(UTC+00:00)

Vanguard 1 Rocket - Pass Details

Date: 21 May 2024
Orbit: 649 x 4221 km, 34.3° (Epoch: 13 June)

Event Time Altitude Azimuth Distance (km) Brightness Sun altitude
Rises 14:59:07 0° 197° (SSW) 8,257 12.2 29.3°
Reaches altitude 10° 15:08:34 10° 181° (S) 6,743 12.0 30.7°
Maximum altitude 15:18:57 16° 151° (SSE) 5,362 12.0 32.2°
Drops below altitude 10° 15:26:58 10° 119° (ESE) 5,048 12.5 33.3°
Sets 15:32:09 0° 100° (E) 5,418 12.4 34.0°
